TimeEDT,TemperatureF,Dew PointF,Humidity,Sea Level PressureIn,VisibilityMPH,Wind Direction,Wind SpeedMPH,Gust SpeedMPH,PrecipitationIn,Events,Conditions,WindDirDegrees,DateUTC
12:53 AM,54.0,39.0,57,30.15,10.0,ENE,9.2,-,N/A,,Mostly Cloudy,70,2013-10-06 04:53:00
1:53 AM,53.1,39.0,59,30.15,10.0,ENE,11.5,-,N/A,,Partly Cloudy,70,2013-10-06 05:53:00
2:53 AM,52.0,37.9,59,30.14,10.0,ENE,15.0,-,N/A,,Overcast,60,2013-10-06 06:53:00
3:53 AM,52.0,36.0,54,30.14,10.0,ENE,15.0,-,N/A,,Clear,60,2013-10-06 07:53:00
4:53 AM,51.1,36.0,56,30.13,10.0,ENE,12.7,-,N/A,,Clear,60,2013-10-06 08:53:00
5:53 AM,50.0,36.0,59,30.14,10.0,ENE,12.7,20.7,N/A,,Clear,60,2013-10-06 09:53:00
6:53 AM,50.0,35.1,57,30.12,10.0,ENE,13.8,-,N/A,,Clear,70,2013-10-06 10:53:00
7:53 AM,48.9,37.0,64,30.12,10.0,ENE,15.0,21.9,N/A,,Clear,60,2013-10-06 11:53:00
8:53 AM,50.0,37.9,63,30.11,10.0,ENE,12.7,-,N/A,,Clear,70,2013-10-06 12:53:00
9:53 AM,51.1,39.9,66,30.10,10.0,ENE,12.7,20.7,N/A,,Mostly Cloudy,70,2013-10-06 13:53:00
10:53 AM,51.1,39.0,63,30.06,10.0,ENE,17.3,24.2,0.00,,Overcast,70,2013-10-06 14:53:00
11:53 AM,52.0,39.9,63,30.05,10.0,ENE,12.7,-,0.00,Rain,Light Rain,70,2013-10-06 15:53:00
12:53 PM,53.1,41.0,64,30.02,10.0,ENE,13.8,-,0.00,,Overcast,70,2013-10-06 16:53:00
1:43 PM,50.0,44.6,82,30.00,3.0,ENE,8.1,-,0.08,Rain,Heavy Rain,60,2013-10-06 17:43:00
1:48 PM,50.0,44.6,82,30.01,1.8,NE,6.9,-,0.13,Rain,Heavy Rain,40,2013-10-06 17:48:00
1:53 PM,50.0,46.0,86,30.00,1.2,ENE,11.5,-,0.23,Rain,Heavy Rain,70,2013-10-06 17:53:00
2:06 PM,50.0,46.4,87,29.99,2.0,NE,11.5,-,0.11,Rain,Light Rain,50,2013-10-06 18:06:00
2:14 PM,50.0,46.4,87,29.99,5.0,ENE,11.5,-,0.13,Rain,Rain,60,2013-10-06 18:14:00
2:25 PM,51.8,46.4,82,29.98,5.0,ENE,10.4,-,0.14,Rain,Rain,70,2013-10-06 18:25:00
2:53 PM,52.0,48.9,89,29.98,6.0,East,10.4,-,0.19,Rain,Light Rain,80,2013-10-06 18:53:00
3:27 PM,53.6,50.0,88,29.96,10.0,ENE,11.5,-,0.00,,Overcast,70,2013-10-06 19:27:00
3:53 PM,53.1,51.1,93,29.95,8.0,ENE,8.1,-,0.01,Rain,Light Rain,70,2013-10-06 19:53:00
4:46 PM,53.6,51.8,94,29.93,5.0,ENE,9.2,-,0.02,Rain,Rain,60,2013-10-06 20:46:00
4:53 PM,54.0,52.0,93,29.93,5.0,East,6.9,-,0.04,Rain,Rain,80,2013-10-06 20:53:00
5:03 PM,53.6,53.6,100,29.92,8.0,East,6.9,-,0.01,Rain,Light Rain,80,2013-10-06 21:03:00
5:10 PM,53.6,53.6,100,29.92,6.0,ENE,6.9,-,0.01,Rain,Light Rain,70,2013-10-06 21:10:00
5:53 PM,55.0,54.0,96,29.92,10.0,ENE,6.9,-,0.04,Rain,Light Rain,70,2013-10-06 21:53:00
6:53 PM,55.9,55.0,97,29.91,10.0,ENE,6.9,-,0.01,,Overcast,70,2013-10-06 22:53:00
7:40 PM,55.4,53.6,94,29.90,8.0,NE,4.6,-,N/A,,Mostly Cloudy,50,2013-10-06 23:40:00
7:53 PM,55.0,54.0,96,29.90,8.0,East,3.5,-,N/A,,Overcast,90,2013-10-06 23:53:00
8:53 PM,55.9,55.0,97,29.89,5.0,NE,3.5,-,N/A,,Overcast,50,2013-10-07 00:53:00
9:24 PM,55.4,55.4,100,29.88,8.0,ENE,4.6,-,N/A,,Scattered Clouds,60,2013-10-07 01:24:00
9:53 PM,55.9,55.0,97,29.88,9.0,East,5.8,-,N/A,,Partly Cloudy,80,2013-10-07 01:53:00
10:53 PM,55.9,54.0,93,29.86,7.0,NE,4.6,-,N/A,,Scattered Clouds,40,2013-10-07 02:53:00
11:53 PM,57.0,55.9,96,29.83,10.0,Calm,Calm,-,N/A,,Mostly Cloudy,0,2013-10-07 03:53:00